UAL1733 KPHX-KIAD

Flight info

Callsign UAL1733
Flight time 3h 19m
Altitude 39000
Route BROAK1 MAXXO PNH COODY FAM J78 IIU JARLO GIBBZ5
Aircraft A20N/M-SDE2E3FGHIRWXY/LB1

Departure

Time 2026-05-06 00:20
Airport Phoenix Sky Harbor International Airport (KPHX)

Arrival

Time 2026-05-06 03:39
Airport Washington Dulles International Airport (KIAD)
Time Latitude Longitude Altitude Speed Heading
2026-05-06 00:04 33.43347 -111.99442 1140 ft 0 kts 14°
2026-05-06 00:15 33.43326 -111.99448 1134 ft 2 kts 14°
2026-05-06 00:15 33.43310 -111.99453 1134 ft 2 kts 16°
2026-05-06 00:16 33.43295 -111.99461 1135 ft 2 kts 37°
2026-05-06 00:16 33.43285 -111.99476 1134 ft 2 kts 65°
2026-05-06 00:16 33.43283 -111.99480 1134 ft 0 kts 63°
2026-05-06 00:17 33.43284 -111.99476 1134 ft 1 kts 67°
2026-05-06 00:18 33.43283 -111.99444 1133 ft 8 kts 94°
2026-05-06 00:18 33.43274 -111.99357 1136 ft 11 kts 124°
2026-05-06 00:18 33.43198 -111.99349 1135 ft 11 kts 182°
2026-05-06 00:18 33.43127 -111.99361 1137 ft 10 kts 210°
2026-05-06 00:19 33.43105 -111.99435 1135 ft 12 kts 269°
2026-05-06 00:19 33.43104 -111.99826 1134 ft 85 kts 270°
2026-05-06 00:19 33.43105 -112.00424 1133 ft 127 kts 270°
2026-05-06 00:19 33.43126 -112.02104 1521 ft 164 kts 270°
2026-05-06 00:20 33.43164 -112.03064 1883 ft 176 kts 271°
2026-05-06 00:20 33.43235 -112.04596 2477 ft 193 kts 269°
2026-05-06 00:20 33.43223 -112.06259 3132 ft 206 kts 265°
2026-05-06 00:20 33.42916 -112.08009 3732 ft 226 kts 249°
2026-05-06 00:21 33.42243 -112.09799 4299 ft 251 kts 245°
2026-05-06 00:21 33.41506 -112.11832 4876 ft 275 kts 248°
2026-05-06 00:21 33.40768 -112.14055 5437 ft 298 kts 247°
2026-05-06 00:21 33.39587 -112.16177 6002 ft 320 kts 225°
2026-05-06 00:22 33.37732 -112.17623 6549 ft 311 kts 202°
2026-05-06 00:22 33.35755 -112.17968 7190 ft 277 kts 177°
2026-05-06 00:22 33.33889 -112.17366 7890 ft 284 kts 164°
2026-05-06 00:22 33.32009 -112.16605 8460 ft 286 kts 165°
2026-05-06 00:23 33.30080 -112.15798 9074 ft 303 kts 158°
2026-05-06 00:23 33.28236 -112.14451 9685 ft 320 kts 142°
2026-05-06 00:23 33.26596 -112.12568 10246 ft 334 kts 137°
2026-05-06 00:23 33.25104 -112.10414 10806 ft 340 kts 121°
2026-05-06 00:24 33.24342 -112.07733 11380 ft 347 kts 98°
2026-05-06 00:24 33.24396 -112.04827 11965 ft 354 kts 84°
2026-05-06 00:24 33.24771 -112.01902 12573 ft 358 kts 81°
2026-05-06 00:24 33.25204 -111.98957 13185 ft 362 kts 82°
2026-05-06 00:25 33.25626 -111.95975 13789 ft 367 kts 81°
2026-05-06 00:25 33.26274 -111.93015 14339 ft 372 kts 71°
2026-05-06 00:25 33.27310 -111.90163 14904 ft 377 kts 62°
2026-05-06 00:25 33.28555 -111.87377 15475 ft 382 kts 62°
2026-05-06 00:26 33.29798 -111.84554 16054 ft 386 kts 62°
2026-05-06 00:26 33.31049 -111.81692 16647 ft 390 kts 63°
2026-05-06 00:26 33.32307 -111.78806 17243 ft 394 kts 62°
2026-05-06 00:26 33.33580 -111.75881 17868 ft 398 kts 62°
2026-05-06 00:27 33.34869 -111.72919 18458 ft 403 kts 62°
2026-05-06 00:27 33.36169 -111.69932 18998 ft 408 kts 62°
2026-05-06 00:27 33.37485 -111.66907 19555 ft 412 kts 62°
2026-05-06 00:27 33.38815 -111.63848 20104 ft 416 kts 63°
2026-05-06 00:28 33.40154 -111.60765 20685 ft 419 kts 63°
2026-05-06 00:28 33.41502 -111.57660 21256 ft 422 kts 63°
2026-05-06 00:28 33.42817 -111.54503 21839 ft 425 kts 69°
2026-05-06 00:28 33.43870 -111.51198 22449 ft 426 kts 71°
2026-05-06 00:29 33.44916 -111.47873 23052 ft 427 kts 71°
2026-05-06 00:29 33.45969 -111.44540 23617 ft 429 kts 71°
2026-05-06 00:29 33.47031 -111.41184 24011 ft 433 kts 72°
2026-05-06 00:29 33.48099 -111.37800 24386 ft 436 kts 72°
2026-05-06 00:30 33.49176 -111.34381 24782 ft 440 kts 72°
2026-05-06 00:30 33.50259 -111.30935 25173 ft 445 kts 72°
2026-05-06 00:30 33.51339 -111.27497 25560 ft 448 kts 72°
2026-05-06 00:30 33.52438 -111.23998 25960 ft 448 kts 72°
2026-05-06 00:31 33.53530 -111.20499 26393 ft 449 kts 74°
2026-05-06 00:31 33.54550 -111.16964 26805 ft 450 kts 76°
2026-05-06 00:31 33.55534 -111.13394 27234 ft 450 kts 77°
2026-05-06 00:31 33.56514 -111.09818 27657 ft 451 kts 77°
2026-05-06 00:32 33.57503 -111.06229 27958 ft 455 kts 76°
2026-05-06 00:32 33.58507 -111.02613 28248 ft 459 kts 76°
2026-05-06 00:32 33.59523 -110.98968 28538 ft 463 kts 76°
2026-05-06 00:32 33.60547 -110.95299 28836 ft 466 kts 76°
2026-05-06 00:33 33.61579 -110.91598 29134 ft 469 kts 77°
2026-05-06 00:33 33.62619 -110.87869 29438 ft 471 kts 77°
2026-05-06 00:33 33.63657 -110.84136 29730 ft 473 kts 77°
2026-05-06 00:33 33.64699 -110.80386 30014 ft 473 kts 76°
2026-05-06 00:34 33.65740 -110.76638 30276 ft 474 kts 77°
2026-05-06 00:34 33.66779 -110.72890 30530 ft 472 kts 77°
2026-05-06 00:34 33.67817 -110.69139 30791 ft 474 kts 77°
2026-05-06 00:34 33.68854 -110.65380 31054 ft 475 kts 77°
2026-05-06 00:35 33.69892 -110.61607 31316 ft 477 kts 77°
2026-05-06 00:35 33.70936 -110.57812 31574 ft 478 kts 77°
2026-05-06 00:35 33.71974 -110.54030 31842 ft 478 kts 77°
2026-05-06 00:35 33.73014 -110.50241 32086 ft 479 kts 77°
2026-05-06 00:36 33.74059 -110.46430 32302 ft 480 kts 77°
2026-05-06 00:36 33.75105 -110.42610 32505 ft 482 kts 77°
2026-05-06 00:36 33.76154 -110.38776 32718 ft 484 kts 77°
2026-05-06 00:36 33.77205 -110.34932 32944 ft 485 kts 77°
2026-05-06 00:37 33.78259 -110.31069 33185 ft 486 kts 77°
2026-05-06 00:37 33.79313 -110.27199 33330 ft 490 kts 76°
2026-05-06 00:37 33.80375 -110.23298 33555 ft 491 kts 76°
2026-05-06 00:37 33.81438 -110.19388 33732 ft 494 kts 76°
2026-05-06 00:38 33.82505 -110.15457 33912 ft 495 kts 76°
2026-05-06 00:38 33.83576 -110.11510 34090 ft 496 kts 76°
2026-05-06 00:38 33.84645 -110.07563 34277 ft 497 kts 76°
2026-05-06 00:38 33.85713 -110.03610 34457 ft 498 kts 76°
2026-05-06 00:39 33.86784 -109.99646 34622 ft 499 kts 76°
2026-05-06 00:39 33.87857 -109.95664 34800 ft 500 kts 76°
2026-05-06 00:39 33.88931 -109.91674 34962 ft 501 kts 76°
2026-05-06 00:39 33.90005 -109.87678 35133 ft 502 kts 76°
2026-05-06 00:40 33.91079 -109.83678 35285 ft 503 kts 76°
2026-05-06 00:40 33.92156 -109.79661 35438 ft 504 kts 76°
2026-05-06 00:40 33.93232 -109.75644 35597 ft 505 kts 76°
2026-05-06 00:40 33.94308 -109.71617 35749 ft 506 kts 76°
2026-05-06 00:41 33.95387 -109.67577 35897 ft 507 kts 76°
2026-05-06 00:41 33.96463 -109.63538 36084 ft 507 kts 76°
2026-05-06 00:41 33.97540 -109.59487 36239 ft 508 kts 76°
2026-05-06 00:41 33.98620 -109.55426 36357 ft 510 kts 76°
2026-05-06 00:42 33.99700 -109.51352 36475 ft 511 kts 76°
2026-05-06 00:42 34.00781 -109.47271 36637 ft 510 kts 76°
2026-05-06 00:42 34.01858 -109.43202 36859 ft 510 kts 76°
2026-05-06 00:42 34.02934 -109.39127 36994 ft 511 kts 76°
2026-05-06 00:43 34.04012 -109.35036 37036 ft 515 kts 76°
2026-05-06 00:43 34.06180 -109.26796 37042 ft 522 kts 76°
2026-05-06 00:44 34.08388 -109.18380 37024 ft 531 kts 76°
2026-05-06 00:44 34.10631 -109.09806 36967 ft 541 kts 76°
2026-05-06 00:45 34.12908 -109.01080 36899 ft 550 kts 76°
2026-05-06 00:45 34.15214 -108.92210 36822 ft 558 kts 76°
2026-05-06 00:46 34.17552 -108.83185 36785 ft 567 kts 76°
2026-05-06 00:46 34.19918 -108.74023 36783 ft 575 kts 76°
2026-05-06 00:47 34.22293 -108.64800 36786 ft 575 kts 76°
2026-05-06 00:47 34.24661 -108.55571 36788 ft 575 kts 76°
2026-05-06 00:48 34.27024 -108.46329 36785 ft 575 kts 76°
2026-05-06 00:48 34.29375 -108.37095 36786 ft 575 kts 77°
2026-05-06 00:49 34.31723 -108.27841 36790 ft 576 kts 77°
2026-05-06 00:49 34.34065 -108.18576 36801 ft 576 kts 77°
2026-05-06 00:50 34.36403 -108.09296 36797 ft 576 kts 77°
2026-05-06 00:50 34.38287 -107.99933 36798 ft 568 kts 90°
2026-05-06 00:51 34.38556 -107.90494 36788 ft 560 kts 97°
2026-05-06 00:51 34.38665 -107.81048 36787 ft 561 kts 96°
2026-05-06 00:52 34.38772 -107.71609 36788 ft 560 kts 96°
2026-05-06 00:52 34.38866 -107.62178 36778 ft 560 kts 96°
2026-05-06 00:53 34.38953 -107.52800 36775 ft 561 kts 97°
2026-05-06 00:53 34.39032 -107.43299 36770 ft 561 kts 97°
2026-05-06 00:54 34.39103 -107.33909 36760 ft 562 kts 97°
2026-05-06 00:54 34.39168 -107.24457 36758 ft 561 kts 97°
2026-05-06 00:55 34.39225 -107.14996 36748 ft 562 kts 97°
2026-05-06 00:55 34.39275 -107.05527 36745 ft 563 kts 97°
2026-05-06 00:56 34.39317 -106.96038 36733 ft 564 kts 97°
2026-05-06 00:56 34.39354 -106.86526 36734 ft 565 kts 97°
2026-05-06 00:57 34.39383 -106.77002 36745 ft 567 kts 98°
2026-05-06 00:57 34.39834 -106.67415 36755 ft 580 kts 84°
2026-05-06 00:58 34.41636 -106.57829 36765 ft 585 kts 82°
2026-05-06 00:58 34.43460 -106.48226 36776 ft 586 kts 82°
2026-05-06 00:59 34.45280 -106.38594 36775 ft 586 kts 82°
2026-05-06 00:59 34.47087 -106.28962 36791 ft 586 kts 82°
2026-05-06 01:00 34.48883 -106.19332 36794 ft 586 kts 82°
2026-05-06 01:00 34.50676 -106.09671 36795 ft 587 kts 82°
2026-05-06 01:01 34.52448 -106.00081 36800 ft 587 kts 82°
2026-05-06 01:01 34.54222 -105.90436 36793 ft 586 kts 82°
2026-05-06 01:02 34.55988 -105.80788 36793 ft 586 kts 82°
2026-05-06 01:02 34.57743 -105.71154 36792 ft 585 kts 82°
2026-05-06 01:03 34.59490 -105.61514 36781 ft 584 kts 82°
2026-05-06 01:03 34.61228 -105.51885 36777 ft 584 kts 82°
2026-05-06 01:04 34.62957 -105.42255 36765 ft 583 kts 82°
2026-05-06 01:04 34.64675 -105.32645 36750 ft 582 kts 82°
2026-05-06 01:05 34.66383 -105.23041 36740 ft 582 kts 82°
2026-05-06 01:05 34.68086 -105.13418 36723 ft 582 kts 83°
2026-05-06 01:06 34.69780 -105.03796 36711 ft 583 kts 83°
2026-05-06 01:06 34.71468 -104.94167 36712 ft 583 kts 83°
2026-05-06 01:07 34.73151 -104.84520 36743 ft 584 kts 83°
2026-05-06 01:07 34.74828 -104.74853 36776 ft 585 kts 83°
2026-05-06 01:08 34.76220 -104.66789 36798 ft 587 kts 83°
2026-05-06 01:08 34.77893 -104.57064 36800 ft 589 kts 83°
2026-05-06 01:09 34.79564 -104.47304 36769 ft 589 kts 83°
2026-05-06 01:09 34.81227 -104.37540 36727 ft 590 kts 83°
2026-05-06 01:10 34.82885 -104.27748 36674 ft 591 kts 83°
2026-05-06 01:10 34.84537 -104.17942 36652 ft 592 kts 83°
2026-05-06 01:11 34.86185 -104.08113 36654 ft 593 kts 83°
2026-05-06 01:11 34.87827 -103.98267 36665 ft 593 kts 83°
2026-05-06 01:12 34.89459 -103.88424 36679 ft 594 kts 83°
2026-05-06 01:12 34.91086 -103.78566 36720 ft 594 kts 83°
2026-05-06 01:13 34.92706 -103.68695 36758 ft 594 kts 83°
2026-05-06 01:13 34.94319 -103.58820 36773 ft 594 kts 83°
2026-05-06 01:14 34.96725 -103.43983 36785 ft 595 kts 83°
2026-05-06 01:14 34.98318 -103.34088 36779 ft 594 kts 83°
2026-05-06 01:15 34.99894 -103.24259 36771 ft 595 kts 83°
2026-05-06 01:15 35.01471 -103.14360 36779 ft 594 kts 83°
2026-05-06 01:16 35.03039 -103.04461 36796 ft 594 kts 83°
2026-05-06 01:16 35.04600 -102.94559 36802 ft 594 kts 83°
2026-05-06 01:17 35.06153 -102.84653 36810 ft 594 kts 83°
2026-05-06 01:17 35.07697 -102.74744 36820 ft 594 kts 83°
2026-05-06 01:18 35.09231 -102.64847 36824 ft 593 kts 83°
2026-05-06 01:18 35.10755 -102.54959 36838 ft 593 kts 83°
2026-05-06 01:19 35.12272 -102.45055 36846 ft 593 kts 83°
2026-05-06 01:19 35.13779 -102.35172 36850 ft 592 kts 83°
2026-05-06 01:20 35.15276 -102.25293 36848 ft 591 kts 83°
2026-05-06 01:20 35.16765 -102.15407 36843 ft 591 kts 83°
2026-05-06 01:21 35.18243 -102.05536 36863 ft 590 kts 83°
2026-05-06 01:21 35.19712 -101.95670 36886 ft 590 kts 83°
2026-05-06 01:22 35.21175 -101.85803 36912 ft 590 kts 83°
2026-05-06 01:22 35.22625 -101.75994 36923 ft 589 kts 83°
2026-05-06 01:23 35.24373 -101.66203 36925 ft 592 kts 75°
2026-05-06 01:23 35.26894 -101.56604 36915 ft 593 kts 73°
2026-05-06 01:24 35.29439 -101.47011 36899 ft 593 kts 73°
2026-05-06 01:24 35.31943 -101.37401 36886 ft 592 kts 74°
2026-05-06 01:25 35.34425 -101.27783 36881 ft 592 kts 74°
2026-05-06 01:25 35.36893 -101.18167 36900 ft 592 kts 74°
2026-05-06 01:26 35.39355 -101.08536 36915 ft 592 kts 74°
2026-05-06 01:26 35.41810 -100.98894 36925 ft 592 kts 74°
2026-05-06 01:27 35.44257 -100.89248 36925 ft 592 kts 74°
2026-05-06 01:27 35.46697 -100.79598 36930 ft 593 kts 74°
2026-05-06 01:28 35.49131 -100.69930 36926 ft 593 kts 74°
2026-05-06 01:28 35.51559 -100.60254 36914 ft 593 kts 74°
2026-05-06 01:29 35.53978 -100.50575 36909 ft 593 kts 74°
2026-05-06 01:29 35.56389 -100.40890 36914 ft 593 kts 74°
2026-05-06 01:30 35.58793 -100.31199 36921 ft 593 kts 74°
2026-05-06 01:30 35.61189 -100.21501 36924 ft 593 kts 74°
2026-05-06 01:31 35.63572 -100.11818 36916 ft 592 kts 74°
2026-05-06 01:31 35.65951 -100.02115 36917 ft 592 kts 74°
2026-05-06 01:32 35.68317 -99.92427 36920 ft 592 kts 74°
2026-05-06 01:32 35.70676 -99.82731 36919 ft 591 kts 75°
2026-05-06 01:33 35.73025 -99.73038 36922 ft 591 kts 75°
2026-05-06 01:33 35.75368 -99.63335 36922 ft 591 kts 75°
2026-05-06 01:34 35.77684 -99.53700 36927 ft 591 kts 75°
2026-05-06 01:34 35.80009 -99.43995 36929 ft 591 kts 75°
2026-05-06 01:35 35.82327 -99.34277 36928 ft 591 kts 75°
2026-05-06 01:35 35.84640 -99.24546 36927 ft 592 kts 75°
2026-05-06 01:36 35.86943 -99.14812 36926 ft 591 kts 75°
2026-05-06 01:36 35.89238 -99.05077 36929 ft 591 kts 75°
2026-05-06 01:37 35.91526 -98.95331 36930 ft 591 kts 75°
2026-05-06 01:37 35.93820 -98.85523 36929 ft 592 kts 75°
2026-05-06 01:38 35.96096 -98.75750 36947 ft 592 kts 75°
2026-05-06 01:38 35.98346 -98.66050 36964 ft 591 kts 75°
2026-05-06 01:39 36.00603 -98.56283 36973 ft 592 kts 75°
2026-05-06 01:39 36.02851 -98.46510 36978 ft 591 kts 75°
2026-05-06 01:40 36.05090 -98.36740 36969 ft 591 kts 75°
2026-05-06 01:40 36.07320 -98.26969 36956 ft 591 kts 75°
2026-05-06 01:41 36.09547 -98.17169 36937 ft 591 kts 75°
2026-05-06 01:41 36.11763 -98.07376 36932 ft 591 kts 75°
2026-05-06 01:42 36.13968 -97.97592 36938 ft 591 kts 75°
2026-05-06 01:42 36.16170 -97.87778 36937 ft 591 kts 75°
2026-05-06 01:43 36.18359 -97.77986 36942 ft 591 kts 75°
2026-05-06 01:43 36.20544 -97.68167 36947 ft 591 kts 75°
2026-05-06 01:44 36.22721 -97.58342 36945 ft 591 kts 75°
2026-05-06 01:44 36.24890 -97.48517 36941 ft 591 kts 75°
2026-05-06 01:45 36.27050 -97.38686 36948 ft 591 kts 75°
2026-05-06 01:45 36.29200 -97.28858 36962 ft 591 kts 75°
2026-05-06 01:46 36.31345 -97.19010 36967 ft 592 kts 75°
2026-05-06 01:46 36.33483 -97.09153 36970 ft 591 kts 75°
2026-05-06 01:47 36.35611 -96.99301 36966 ft 591 kts 75°
2026-05-06 01:47 36.37731 -96.89445 36963 ft 591 kts 75°
2026-05-06 01:48 36.39842 -96.79583 36959 ft 591 kts 75°
2026-05-06 01:48 36.41945 -96.69719 36958 ft 591 kts 75°
2026-05-06 01:49 36.44027 -96.59905 36963 ft 591 kts 75°
2026-05-06 01:49 36.46042 -96.50368 36964 ft 591 kts 75°
2026-05-06 01:50 36.48123 -96.40477 36967 ft 591 kts 75°
2026-05-06 01:50 36.50192 -96.30600 36967 ft 591 kts 75°
2026-05-06 01:51 36.52256 -96.20702 36970 ft 591 kts 75°
2026-05-06 01:51 36.54309 -96.10808 36970 ft 591 kts 75°
2026-05-06 01:52 36.56353 -96.00916 36970 ft 590 kts 75°
2026-05-06 01:52 36.58386 -95.91036 36967 ft 590 kts 75°
2026-05-06 01:53 36.60414 -95.81129 36966 ft 590 kts 75°
2026-05-06 01:53 36.62434 -95.71231 36961 ft 590 kts 75°
2026-05-06 01:54 36.64449 -95.61332 36959 ft 590 kts 75°
2026-05-06 01:54 36.66427 -95.51586 36953 ft 590 kts 75°
2026-05-06 01:55 36.68484 -95.41693 36949 ft 590 kts 74°
2026-05-06 01:55 36.70612 -95.31832 36946 ft 589 kts 74°
2026-05-06 01:56 36.72738 -95.21960 36945 ft 589 kts 74°
2026-05-06 01:56 36.74844 -95.12095 36948 ft 589 kts 74°
2026-05-06 01:57 36.76937 -95.02222 36948 ft 589 kts 74°
2026-05-06 01:57 36.79020 -94.92342 36952 ft 589 kts 74°
2026-05-06 01:58 36.81081 -94.82529 36949 ft 588 kts 74°
2026-05-06 01:58 36.83160 -94.72582 36949 ft 588 kts 74°
2026-05-06 01:59 36.85216 -94.62699 36947 ft 588 kts 74°
2026-05-06 01:59 36.87249 -94.52883 36945 ft 588 kts 74°
2026-05-06 02:00 36.89291 -94.42982 36945 ft 589 kts 74°
2026-05-06 02:00 36.91323 -94.33081 36940 ft 588 kts 74°
2026-05-06 02:01 36.93346 -94.23182 36936 ft 588 kts 74°
2026-05-06 02:01 36.95360 -94.13276 36934 ft 588 kts 74°
2026-05-06 02:02 36.97365 -94.03375 36934 ft 587 kts 74°
2026-05-06 02:02 36.99362 -93.93464 36952 ft 587 kts 74°
2026-05-06 02:03 37.01349 -93.83557 36948 ft 587 kts 74°
2026-05-06 02:03 37.02995 -93.75319 36943 ft 587 kts 74°
2026-05-06 02:04 37.04966 -93.65405 36946 ft 587 kts 74°
2026-05-06 02:04 37.06929 -93.55489 36943 ft 587 kts 74°
2026-05-06 02:05 37.08882 -93.45571 36946 ft 587 kts 74°
2026-05-06 02:05 37.10829 -93.35644 36948 ft 587 kts 75°
2026-05-06 02:06 37.12766 -93.25716 36950 ft 586 kts 75°
2026-05-06 02:06 37.14695 -93.15783 36944 ft 586 kts 75°
2026-05-06 02:07 37.16613 -93.05857 36937 ft 586 kts 75°
2026-05-06 02:07 37.18526 -92.95912 36934 ft 586 kts 75°
2026-05-06 02:08 37.20427 -92.85977 36934 ft 585 kts 75°
2026-05-06 02:08 37.22319 -92.76044 36934 ft 585 kts 75°
2026-05-06 02:09 37.24201 -92.66117 36932 ft 585 kts 75°
2026-05-06 02:09 37.26075 -92.56181 36929 ft 585 kts 75°
2026-05-06 02:10 37.27939 -92.46248 36928 ft 585 kts 75°
2026-05-06 02:10 37.29795 -92.36306 36927 ft 585 kts 75°
2026-05-06 02:11 37.31643 -92.26365 36923 ft 585 kts 75°
2026-05-06 02:11 37.33482 -92.16417 36927 ft 584 kts 75°
2026-05-06 02:12 37.35301 -92.06530 36926 ft 584 kts 75°
2026-05-06 02:12 37.37120 -91.96591 36927 ft 584 kts 75°
2026-05-06 02:13 37.38934 -91.86630 36924 ft 584 kts 75°
2026-05-06 02:13 37.40736 -91.76683 36921 ft 583 kts 75°
2026-05-06 02:14 37.42532 -91.66722 36924 ft 583 kts 75°
2026-05-06 02:14 37.44317 -91.56767 36921 ft 583 kts 75°
2026-05-06 02:15 37.46092 -91.46818 36926 ft 583 kts 75°
2026-05-06 02:15 37.47857 -91.36876 36922 ft 582 kts 75°
2026-05-06 02:16 37.49615 -91.26918 36925 ft 582 kts 75°
2026-05-06 02:16 37.51368 -91.16942 36922 ft 583 kts 75°
2026-05-06 02:17 37.53109 -91.06977 36926 ft 583 kts 75°
2026-05-06 02:17 37.54842 -90.97004 36923 ft 583 kts 75°
2026-05-06 02:18 37.56567 -90.87025 36925 ft 583 kts 75°
2026-05-06 02:18 37.58284 -90.77042 36925 ft 583 kts 75°
2026-05-06 02:19 37.59993 -90.67050 36931 ft 582 kts 75°
2026-05-06 02:19 37.61691 -90.57071 36930 ft 582 kts 75°
2026-05-06 02:20 37.64223 -90.42091 36928 ft 582 kts 75°
2026-05-06 02:21 37.65903 -90.32117 36933 ft 581 kts 75°
2026-05-06 02:21 37.67486 -90.22112 36933 ft 582 kts 81°
2026-05-06 02:22 37.68575 -90.12059 36933 ft 581 kts 80°
2026-05-06 02:22 37.69733 -90.01959 36940 ft 581 kts 80°
2026-05-06 02:23 37.70860 -89.91863 36943 ft 581 kts 80°
2026-05-06 02:23 37.71967 -89.81757 36943 ft 581 kts 80°
2026-05-06 02:24 37.73064 -89.71655 36943 ft 581 kts 80°
2026-05-06 02:24 37.74152 -89.61551 36935 ft 580 kts 81°
2026-05-06 02:25 37.75232 -89.51436 36919 ft 580 kts 81°
2026-05-06 02:25 37.76303 -89.41328 36922 ft 580 kts 81°
2026-05-06 02:26 37.77364 -89.31225 36922 ft 580 kts 81°
2026-05-06 02:26 37.78418 -89.21104 36924 ft 580 kts 81°
2026-05-06 02:27 37.79462 -89.10995 36930 ft 580 kts 81°
2026-05-06 02:27 37.80489 -89.00957 36931 ft 579 kts 81°
2026-05-06 02:28 37.81521 -88.90865 36930 ft 579 kts 81°
2026-05-06 02:28 37.82565 -88.80774 36918 ft 578 kts 81°
2026-05-06 02:29 37.83599 -88.70704 36892 ft 577 kts 81°
2026-05-06 02:29 37.84621 -88.60636 36895 ft 577 kts 81°
2026-05-06 02:30 37.85634 -88.50568 36896 ft 577 kts 81°
2026-05-06 02:30 37.86637 -88.40506 36892 ft 576 kts 81°
2026-05-06 02:31 37.87632 -88.30435 36884 ft 576 kts 81°
2026-05-06 02:31 37.88618 -88.20369 36880 ft 576 kts 81°
2026-05-06 02:32 37.89594 -88.10303 36868 ft 576 kts 81°
2026-05-06 02:32 37.90563 -88.00233 36861 ft 576 kts 81°
2026-05-06 02:33 37.91522 -87.90169 36861 ft 576 kts 81°
2026-05-06 02:33 37.91837 -87.86841 36859 ft 576 kts 81°
2026-05-06 02:34 37.93395 -87.70094 36858 ft 576 kts 81°
2026-05-06 02:34 37.94280 -87.60016 36860 ft 575 kts 81°
2026-05-06 02:35 37.95161 -87.49942 36858 ft 575 kts 81°
2026-05-06 02:35 37.96037 -87.39868 36857 ft 575 kts 81°
2026-05-06 02:36 37.96903 -87.29797 36853 ft 575 kts 81°
2026-05-06 02:36 37.97760 -87.19728 36839 ft 574 kts 81°
2026-05-06 02:37 37.98609 -87.09666 36837 ft 574 kts 81°
2026-05-06 02:37 37.99447 -86.99610 36843 ft 573 kts 81°
2026-05-06 02:38 38.00277 -86.89562 36844 ft 573 kts 81°
2026-05-06 02:38 38.01097 -86.79519 36839 ft 573 kts 81°
2026-05-06 02:39 38.01908 -86.69478 36838 ft 572 kts 81°
2026-05-06 02:39 38.02710 -86.59444 36829 ft 572 kts 81°
2026-05-06 02:40 38.03504 -86.49398 36829 ft 572 kts 82°
2026-05-06 02:40 38.04291 -86.39351 36829 ft 572 kts 82°
2026-05-06 02:41 38.05062 -86.29382 36831 ft 571 kts 82°
2026-05-06 02:41 38.05828 -86.19347 36835 ft 572 kts 82°
2026-05-06 02:42 38.06587 -86.09314 36835 ft 571 kts 82°
2026-05-06 02:42 38.07337 -85.99280 36837 ft 571 kts 82°
2026-05-06 02:43 38.08079 -85.89244 36845 ft 571 kts 82°
2026-05-06 02:43 38.08812 -85.79201 36851 ft 571 kts 82°
2026-05-06 02:44 38.09534 -85.69177 36849 ft 570 kts 82°
2026-05-06 02:44 38.10252 -85.59143 36843 ft 570 kts 82°
2026-05-06 02:45 38.11012 -85.49134 36838 ft 569 kts 81°
2026-05-06 02:45 38.11825 -85.39157 36831 ft 568 kts 81°
2026-05-06 02:46 38.12627 -85.29171 36820 ft 568 kts 81°
2026-05-06 02:46 38.13411 -85.19193 36829 ft 567 kts 81°
2026-05-06 02:47 38.14182 -85.09222 36832 ft 567 kts 81°
2026-05-06 02:47 38.14943 -84.99261 36839 ft 566 kts 81°
2026-05-06 02:48 38.15695 -84.89303 36844 ft 566 kts 81°
2026-05-06 02:48 38.16438 -84.79358 36839 ft 566 kts 81°
2026-05-06 02:49 38.17173 -84.69408 36852 ft 565 kts 81°
2026-05-06 02:49 38.17900 -84.59453 36851 ft 565 kts 81°
2026-05-06 02:50 38.18618 -84.49512 36849 ft 565 kts 81°
2026-05-06 02:50 38.19327 -84.39563 36847 ft 564 kts 81°
2026-05-06 02:51 38.20025 -84.29638 36845 ft 564 kts 81°
2026-05-06 02:51 38.20717 -84.19713 36866 ft 563 kts 81°
2026-05-06 02:52 38.21398 -84.09792 36868 ft 563 kts 81°
2026-05-06 02:52 38.21958 -84.01554 36876 ft 562 kts 81°
2026-05-06 02:53 38.22730 -83.90052 36871 ft 561 kts 82°
2026-05-06 02:53 38.23383 -83.80178 36844 ft 561 kts 82°
2026-05-06 02:54 38.23925 -83.71897 36841 ft 560 kts 82°
2026-05-06 02:54 38.24563 -83.62022 36838 ft 559 kts 82°
2026-05-06 02:55 38.25187 -83.52232 36839 ft 559 kts 82°
2026-05-06 02:55 38.25811 -83.42313 36844 ft 559 kts 82°
2026-05-06 02:56 38.26417 -83.32541 36849 ft 557 kts 82°
2026-05-06 02:56 38.27019 -83.22715 36855 ft 557 kts 82°
2026-05-06 02:57 38.27613 -83.12886 36861 ft 557 kts 82°
2026-05-06 02:57 38.28198 -83.03060 36859 ft 556 kts 82°
2026-05-06 02:58 38.28775 -82.93238 36865 ft 556 kts 82°
2026-05-06 02:58 38.29343 -82.83421 36870 ft 557 kts 82°
2026-05-06 02:59 38.29904 -82.73583 36873 ft 557 kts 82°
2026-05-06 02:59 38.30455 -82.63754 36877 ft 556 kts 82°
2026-05-06 03:00 38.30998 -82.53943 36857 ft 556 kts 82°
2026-05-06 03:00 38.31535 -82.44101 36873 ft 557 kts 82°
2026-05-06 03:01 38.32064 -82.34256 36874 ft 557 kts 82°
2026-05-06 03:01 38.32582 -82.24431 36863 ft 556 kts 82°
2026-05-06 03:02 38.33092 -82.14604 36859 ft 556 kts 82°
2026-05-06 03:02 38.33594 -82.04778 36844 ft 556 kts 82°
2026-05-06 03:03 38.34088 -81.94957 36863 ft 556 kts 82°
2026-05-06 03:03 38.34576 -81.85134 36865 ft 555 kts 82°
2026-05-06 03:04 38.34914 -81.75306 36883 ft 558 kts 89°
2026-05-06 03:04 38.34593 -81.65670 36888 ft 558 kts 89°
2026-05-06 03:05 38.34303 -81.55792 36892 ft 557 kts 89°
2026-05-06 03:05 38.33993 -81.45936 36888 ft 557 kts 89°
2026-05-06 03:06 38.33668 -81.36078 36884 ft 557 kts 89°
2026-05-06 03:06 38.33333 -81.26233 36878 ft 557 kts 89°
2026-05-06 03:07 38.32989 -81.16375 36879 ft 556 kts 89°
2026-05-06 03:07 38.32638 -81.06549 36876 ft 555 kts 89°
2026-05-06 03:08 38.32281 -80.96753 36879 ft 553 kts 89°
2026-05-06 03:08 38.31916 -80.86982 36882 ft 551 kts 89°
2026-05-06 03:09 38.31546 -80.77255 36890 ft 551 kts 89°
2026-05-06 03:09 38.31168 -80.67511 36900 ft 549 kts 89°
2026-05-06 03:10 38.30788 -80.57876 36904 ft 549 kts 89°
2026-05-06 03:10 38.30518 -80.48178 36915 ft 545 kts 82°
2026-05-06 03:11 38.31767 -80.38798 36916 ft 534 kts 68°
2026-05-06 03:11 38.33657 -80.29663 36924 ft 533 kts 69°
2026-05-06 03:12 38.35521 -80.20530 36930 ft 533 kts 69°
2026-05-06 03:12 38.36448 -80.15967 36765 ft 533 kts 69°
2026-05-06 03:12 38.37378 -80.11381 36331 ft 532 kts 69°
2026-05-06 03:12 38.38302 -80.06816 35675 ft 531 kts 69°
2026-05-06 03:13 38.39222 -80.02265 35002 ft 531 kts 69°
2026-05-06 03:13 38.40139 -79.97717 34344 ft 530 kts 69°
2026-05-06 03:13 38.41053 -79.93175 33655 ft 528 kts 69°
2026-05-06 03:13 38.41964 -79.88646 32939 ft 526 kts 70°
2026-05-06 03:14 38.42871 -79.84141 32211 ft 524 kts 70°
2026-05-06 03:14 38.43775 -79.79648 31525 ft 521 kts 71°
2026-05-06 03:14 38.44678 -79.75209 30859 ft 518 kts 71°
2026-05-06 03:14 38.45583 -79.70785 30184 ft 509 kts 72°
2026-05-06 03:15 38.46465 -79.66459 29478 ft 497 kts 72°
2026-05-06 03:15 38.47319 -79.62245 28775 ft 485 kts 73°
2026-05-06 03:15 38.48160 -79.58122 28084 ft 474 kts 72°
2026-05-06 03:15 38.48990 -79.54086 27439 ft 470 kts 72°
2026-05-06 03:16 38.49822 -79.50045 26804 ft 470 kts 73°
2026-05-06 03:16 38.50642 -79.46017 26189 ft 468 kts 73°
2026-05-06 03:16 38.51441 -79.42007 25586 ft 463 kts 73°
2026-05-06 03:16 38.52228 -79.38026 25015 ft 464 kts 73°
2026-05-06 03:17 38.53016 -79.34037 24448 ft 462 kts 73°
2026-05-06 03:17 38.53800 -79.30069 23889 ft 460 kts 73°
2026-05-06 03:17 38.54579 -79.26120 23317 ft 457 kts 73°
2026-05-06 03:17 38.55350 -79.22202 22669 ft 454 kts 74°
2026-05-06 03:18 38.56116 -79.18306 22050 ft 451 kts 74°
2026-05-06 03:18 38.56876 -79.14431 21428 ft 447 kts 74°
2026-05-06 03:18 38.57629 -79.10595 20851 ft 443 kts 75°
2026-05-06 03:18 38.58372 -79.06795 20273 ft 439 kts 75°
2026-05-06 03:19 38.59100 -79.03021 19712 ft 435 kts 76°
2026-05-06 03:19 38.59749 -78.99261 19167 ft 431 kts 77°
2026-05-06 03:19 38.60359 -78.95525 18639 ft 427 kts 78°
2026-05-06 03:19 38.60959 -78.91843 18087 ft 418 kts 78°
2026-05-06 03:20 38.62125 -78.84778 16955 ft 395 kts 78°
2026-05-06 03:20 38.62742 -78.81404 16418 ft 386 kts 72°
2026-05-06 03:20 38.63526 -78.78160 15925 ft 377 kts 72°
2026-05-06 03:21 38.64290 -78.74980 15447 ft 374 kts 73°
2026-05-06 03:21 38.65034 -78.71861 14972 ft 372 kts 73°
2026-05-06 03:21 38.65787 -78.68696 14509 ft 370 kts 73°
2026-05-06 03:21 38.66534 -78.65552 14053 ft 369 kts 74°
2026-05-06 03:22 38.67276 -78.62425 13587 ft 367 kts 74°
2026-05-06 03:22 38.68014 -78.59308 13080 ft 365 kts 74°
2026-05-06 03:22 38.68747 -78.56204 12570 ft 363 kts 74°
2026-05-06 03:22 38.69474 -78.53125 12078 ft 360 kts 74°
2026-05-06 03:23 38.70183 -78.50119 11591 ft 353 kts 74°
2026-05-06 03:23 38.70888 -78.47121 11192 ft 341 kts 74°
2026-05-06 03:23 38.71542 -78.44340 11048 ft 321 kts 74°
2026-05-06 03:23 38.72187 -78.41593 11023 ft 326 kts 74°
2026-05-06 03:24 38.72904 -78.38833 10851 ft 327 kts 66°
2026-05-06 03:24 38.74057 -78.36348 10498 ft 324 kts 50°
2026-05-06 03:24 38.75558 -78.34230 10136 ft 320 kts 45°
2026-05-06 03:24 38.77072 -78.32160 9761 ft 317 kts 45°
2026-05-06 03:25 38.78567 -78.30100 9372 ft 314 kts 45°
2026-05-06 03:25 38.80043 -78.28060 8981 ft 311 kts 46°
2026-05-06 03:25 38.81518 -78.26016 8600 ft 313 kts 46°
2026-05-06 03:25 38.82990 -78.23975 8315 ft 311 kts 46°
2026-05-06 03:26 38.84453 -78.21926 8066 ft 312 kts 50°
2026-05-06 03:26 38.85628 -78.19606 7816 ft 311 kts 66°
2026-05-06 03:26 38.86368 -78.16972 7579 ft 314 kts 75°
2026-05-06 03:26 38.87017 -78.14321 7326 ft 309 kts 74°
2026-05-06 03:27 38.87668 -78.11715 7084 ft 307 kts 74°
2026-05-06 03:27 38.88328 -78.09084 6841 ft 309 kts 74°
2026-05-06 03:27 38.88982 -78.06484 6595 ft 303 kts 75°
2026-05-06 03:27 38.89623 -78.03930 6359 ft 307 kts 75°
2026-05-06 03:28 38.90282 -78.01297 6112 ft 304 kts 75°
2026-05-06 03:28 38.90918 -77.98757 5998 ft 304 kts 75°
2026-05-06 03:28 38.91564 -77.96168 5982 ft 304 kts 75°
2026-05-06 03:28 38.92210 -77.93578 5985 ft 306 kts 75°
2026-05-06 03:29 38.92856 -77.90985 5981 ft 304 kts 75°
2026-05-06 03:29 38.93501 -77.88395 5987 ft 304 kts 75°
2026-05-06 03:29 38.94149 -77.85786 5998 ft 308 kts 75°
2026-05-06 03:29 38.94796 -77.83178 6001 ft 305 kts 75°
2026-05-06 03:30 38.95440 -77.80586 6003 ft 304 kts 75°
2026-05-06 03:30 38.96081 -77.77993 6005 ft 306 kts 77°
2026-05-06 03:30 38.96428 -77.75320 6006 ft 300 kts 94°
2026-05-06 03:30 38.96249 -77.72680 6009 ft 296 kts 104°
2026-05-06 03:31 38.95952 -77.70059 6007 ft 297 kts 103°
2026-05-06 03:31 38.95669 -77.67431 6010 ft 297 kts 103°
2026-05-06 03:31 38.95454 -77.64782 6010 ft 301 kts 92°
2026-05-06 03:31 38.95932 -77.62161 5963 ft 306 kts 66°
2026-05-06 03:32 38.97184 -77.59988 5636 ft 302 kts 40°
2026-05-06 03:32 38.98912 -77.58540 5214 ft 294 kts 24°
2026-05-06 03:32 39.00767 -77.57535 4773 ft 285 kts
2026-05-06 03:32 39.02697 -77.57264 4315 ft 274 kts 351°
2026-05-06 03:33 39.04586 -77.57409 3876 ft 271 kts 351°
2026-05-06 03:33 39.06467 -77.57475 3432 ft 270 kts 353°
2026-05-06 03:33 39.08325 -77.57258 3098 ft 268 kts 15°
2026-05-06 03:33 39.09911 -77.56008 3022 ft 273 kts 47°
2026-05-06 03:34 39.10863 -77.53989 3016 ft 263 kts 79°
2026-05-06 03:34 39.11049 -77.51693 3015 ft 256 kts 97°
2026-05-06 03:34 39.11043 -77.49379 3013 ft 259 kts 97°
2026-05-06 03:34 39.11037 -77.47080 3015 ft 256 kts 97°
2026-05-06 03:35 39.10881 -77.44840 3016 ft 244 kts 117°
2026-05-06 03:35 39.10012 -77.43085 3012 ft 225 kts 150°
2026-05-06 03:35 39.08695 -77.42476 3007 ft 186 kts 192°
2026-05-06 03:35 39.07528 -77.42830 3037 ft 162 kts 201°
2026-05-06 03:36 39.06470 -77.43227 3006 ft 150 kts 198°
2026-05-06 03:36 39.05496 -77.43398 2913 ft 139 kts 188°
2026-05-06 03:36 39.04547 -77.43333 2589 ft 134 kts 186°
2026-05-06 03:36 39.03651 -77.43392 2256 ft 127 kts 192°
2026-05-06 03:37 39.02752 -77.43495 1897 ft 131 kts 189°
2026-05-06 03:37 39.01852 -77.43463 1587 ft 127 kts 186°
2026-05-06 03:37 39.00975 -77.43495 1349 ft 132 kts 187°
2026-05-06 03:37 39.00069 -77.43522 1154 ft 135 kts 184°
2026-05-06 03:38 38.99154 -77.43535 1048 ft 128 kts 183°
2026-05-06 03:38 38.98255 -77.43559 880 ft 129 kts 182°
2026-05-06 03:38 38.97348 -77.43565 695 ft 131 kts 181°
2026-05-06 03:38 38.96429 -77.43586 530 ft 131 kts 180°
2026-05-06 03:39 38.95543 -77.43595 357 ft 127 kts 182°
2026-05-06 03:39 38.94716 -77.43611 308 ft 102 kts 181°
2026-05-06 03:39 38.94301 -77.43619 311 ft 33 kts 181°
2026-05-06 03:39 38.94081 -77.43629 312 ft 27 kts 189°
2026-05-06 03:40 38.93910 -77.43710 311 ft 21 kts 209°
2026-05-06 03:40 38.93829 -77.43768 313 ft 4 kts 207°
2026-05-06 03:40 38.93826 -77.43770 313 ft 2 kts 207°
2026-05-06 03:40 38.93805 -77.43784 313 ft 5 kts 207°
2026-05-06 03:41 38.93753 -77.43837 311 ft 9 kts 239°
2026-05-06 03:41 38.93776 -77.43871 312 ft 9 kts 356°
2026-05-06 03:41 38.93882 -77.43869 313 ft 14 kts
2026-05-06 03:41 38.93993 -77.43868 313 ft 18 kts 360°
2026-05-06 03:42 38.94080 -77.43870 314 ft 19 kts 359°
2026-05-06 03:42 38.94225 -77.43867 315 ft 23 kts
2026-05-06 03:42 38.94401 -77.43865 311 ft 27 kts
2026-05-06 03:42 38.94592 -77.43859 308 ft 15 kts
2026-05-06 03:43 38.94651 -77.43921 306 ft 15 kts 273°
2026-05-06 03:43 38.94657 -77.44067 306 ft 18 kts 271°
2026-05-06 03:43 38.94656 -77.44233 306 ft 20 kts 269°
2026-05-06 03:43 38.94650 -77.44304 308 ft 1 kts 230°
2026-05-06 03:44 38.94642 -77.44309 308 ft 2 kts 206°
2026-05-06 03:44 38.94628 -77.44312 308 ft 2 kts 186°
2026-05-06 03:44 38.94609 -77.44316 311 ft 3 kts 196°
2026-05-06 03:44 38.94585 -77.44330 310 ft 0 kts 205°